Terminal Aerodrome Forecast
Issued by NWS

Home | Current Version | Previous Version | Text Only | Print | Product List | Glossary On
Versions: 1 2 3 4 5 6 7 8 9 10 11 12 13 14 15 16 17
000
FTAK31 PAJN 220500
TAFAYA
TAF
PAYA 220527Z 2206/2306 27005KT P6SM VCFG SKC
     FM220800 VRB03KT P6SM VCFG FEW005
     FM221000 00000KT P6SM VCFG SCT002 SCT050
     FM221300 00000KT 4SM BCFG BKN005 OVC012
     FM221700 22005KT P6SM SCT005 BKN012 BKN080
      AMD LTD TO CLD VIS AND WIND 2206/2210=

USA.gov is the U.S. government's official web portal to all federal, state and local government web resources and services.